FW0177 Weather Reports


Display with metric or nautical units.
time (UTC)temp
F
wind
direction
speed
MPH
gust
MPH
rain 1hr
in
rain 24hr
in
rain mn
in
humidity
%
barometer
mb
20190421060727 45 302 0.0 0.0 0.00 0.00 0.00 90 1016.9
20190421060221 45 302 0.0 0.0 0.00 0.00 0.00 90 1016.9
20190421055712 45 302 0.0 0.0 0.00 0.00 0.00 90 1016.9
20190421055224 45 302 0.0 0.0 0.00 0.00 0.00 90 1016.9
20190421054715 46 302 0.0 0.0 0.00 0.00 0.00 90 1016.9
20190421054227 46 302 0.0 0.0 0.00 0.00 0.00 89 1016.8
20190421053718 46 302 0.0 0.0 0.00 0.00 0.00 89 1016.8
20190421053229 46 302 0.0 0.0 0.00 0.00 0.00 89 1016.8
20190421052721 46 302 0.0 0.0 0.00 0.00 0.00 88 1016.7
20190421052216 46 302 0.0 0.0 0.00 0.00 0.00 87 1016.6
20190421051727 46 302 0.0 0.0 0.00 0.00 0.00 87 1016.6
20190421051218 46 302 0.0 0.0 0.00 0.00 0.00 86 1016.5
20190421050729 46 302 0.0 0.0 0.00 0.00 0.00 85 1016.5
20190421050221 47 302 0.0 0.0 0.00 0.00 0.00 85 1016.5
20190421045732 47 302 0.0 0.0 0.00 0.00 0.00 85 1016.4
20190421045223 47 302 0.0 0.0 0.00 0.00 0.00 85 1016.4
20190421044714 47 302 0.0 0.0 0.00 0.00 0.00 85 1016.4
20190421044225 47 302 0.0 0.0 0.00 0.00 0.00 83 1016.3
20190421043720 47 302 0.0 0.0 0.00 0.00 0.00 83 1016.3
20190421043213 47 302 0.0 0.0 0.00 0.00 0.00 83 1016.3
20190421042724 47 302 0.0 0.0 0.00 0.00 0.00 82 1016.2
20190421042215 48 302 0.0 0.0 0.00 0.00 0.00 82 1016.1
20190421041727 48 302 0.0 0.0 0.00 0.00 0.00 82 1016.1
20190421041218 48 302 0.0 0.0 0.00 0.00 0.00 81 1016.1
20190421040729 48 302 0.0 0.0 0.00 0.00 0.00 80 1016.1
20190421040220 49 302 0.0 0.0 0.00 0.00 0.00 80 1016.0
20190421035716 49 302 0.0 0.0 0.00 0.00 0.00 81 1016.0
20190421035227 49 302 0.0 0.0 0.00 0.00 0.00 78 1016.0
20190421034718 49 302 0.0 0.0 0.00 0.00 0.00 77 1016.0
20190421034230 49 302 0.0 0.0 0.00 0.00 0.00 75 1015.9
20190421033721 49 302 0.0 0.0 0.00 0.00 0.00 74 1015.9
20190421033212 50 302 0.0 0.0 0.00 0.00 0.00 76 1015.8
20190421032723 50 302 0.0 0.0 0.00 0.00 0.00 77 1015.8
20190421032216 50 302 0.0 0.0 0.00 0.00 0.00 76 1015.7
20190421031731 50 302 0.0 0.0 0.00 0.00 0.00 77 1015.7
20190421031222 50 302 0.0 0.0 0.00 0.00 0.00 73 1015.6
20190421030714 51 302 0.0 0.0 0.00 0.00 0.00 74 1015.5
20190421030225 51 302 0.0 0.0 0.00 0.00 0.00 74 1015.5
20190421025716 51 302 0.0 0.0 0.00 0.00 0.00 72 1015.6
20190421025228 51 302 0.0 0.0 0.00 0.00 0.00 69 1015.5
20190421024719 51 302 0.0 0.0 0.00 0.00 0.00 68 1015.4
20190421024230 51 302 0.0 0.0 0.00 0.00 0.00 70 1015.3
20190421023726 52 302 0.0 0.0 0.00 0.00 0.00 71 1015.3
20190421023217 52 302 0.0 0.0 0.00 0.00 0.00 71 1015.4
20190421022729 52 302 0.0 0.0 0.00 0.00 0.00 68 1015.3
20190421022220 52 302 0.0 0.0 0.00 0.00 0.00 68 1015.2
20190421021732 53 302 0.0 0.0 0.00 0.00 0.00 67 1015.1
20190421021223 53 302 0.0 0.0 0.00 0.00 0.00 66 1015.0
20190421020714 53 302 0.0 0.0 0.00 0.00 0.00 63 1014.9
20190421020225 54 302 0.0 0.0 0.00 0.00 0.00 62 1014.9
20190421015720 54 302 0.0 0.0 0.00 0.00 0.00 59 1014.8
20190421015231 55 302 0.0 0.0 0.00 0.00 0.00 59 1014.7
20190421014722 55 302 0.0 0.0 0.00 0.00 0.00 57 1014.6
20190421014213 56 302 0.0 0.0 0.00 0.00 0.00 56 1014.5
20190421013725 56 302 0.0 0.0 0.00 0.00 0.00 53 1014.4
20190421013216 57 302 0.0 0.0 0.00 0.00 0.00 51 1014.4
20190421012727 58 302 0.0 0.0 0.00 0.00 0.00 50 1014.3
20190421012218 59 302 0.0 1.0 0.00 0.00 0.00 52 1014.3
20190421011713 59 302 0.0 0.0 0.00 0.00 0.00 51 1014.2
20190421011225 60 302 0.0 0.0 0.00 0.00 0.00 46 1014.1
20190421010716 60 302 0.0 2.0 0.00 0.00 0.00 45 1014.0
20190421010228 60 302 0.0 2.0 0.00 0.00 0.00 43 1013.9
20190421005719 61 302 0.0 0.0 0.00 0.00 0.00 42 1013.9
20190421005231 61 302 0.0 0.0 0.00 0.00 0.00 41 1013.7
20190421004722 61 302 0.0 4.0 0.00 0.00 0.00 40 1013.7
20190421004213 62 302 0.0 5.0 0.00 0.00 0.00 40 1013.6
20190421003725 62 302 2.0 5.0 0.00 0.00 0.00 39 1013.5
20190421003220 62 302 3.0 5.0 0.00 0.00 0.00 38 1013.4
20190421002732 63 302 3.0 5.0 0.00 0.00 0.00 38 1013.4
20190421002223 63 302 3.0 7.0 0.00 0.00 0.00 37 1013.3
20190421001715 64 302 3.0 7.0 0.00 0.00 0.00 36 1013.2
20190421001226 64 296 3.0 7.0 0.00 0.00 0.00 35 1013.1
20190421000717 64 305 4.0 11.0 0.00 0.00 0.00 34 1013.1
20190421000229 65 309 5.0 11.0 0.00 0.00 0.00 34 1013.0
20190420235720 65 297 6.0 11.0 0.00 0.00 0.00 33 1012.9
20190420235215 65 306 5.0 10.0 0.00 0.00 0.00 33 1012.9
20190420234727 66 302 5.0 11.0 0.00 0.00 0.00 32 1012.9
20190420234218 66 324 5.0 12.0 0.00 0.00 0.00 32 1012.8
20190420233729 67 317 6.0 12.0 0.00 0.00 0.00 32 1012.8
20190420233222 67 285 8.0 12.0 0.00 0.00 0.00 31 1012.7
20190420232733 67 303 7.0 12.0 0.00 0.00 0.00 31 1012.6
20190420232224 67 311 7.0 13.0 0.00 0.00 0.00 30 1012.5
20190420231715 67 251 5.0 15.0 0.00 0.00 0.00 31 1012.5
20190420231231 68 307 7.0 15.0 0.00 0.00 0.00 30 1012.4
20190420230722 68 294 7.0 14.0 0.00 0.00 0.00 30 1012.4
20190420230213 68 312 6.0 17.0 0.00 0.00 0.00 31 1012.4
20190420225726 68 309 10.0 17.0 0.00 0.00 0.00 29 1012.4
20190420225218 68 306 7.0 14.0 0.00 0.00 0.00 30 1012.4
20190420224729 68 323 6.0 14.0 0.00 0.00 0.00 30 1012.4
20190420224220 68 307 9.0 14.0 0.00 0.00 0.00 28 1012.4
20190420223732 69 294 4.0 14.0 0.00 0.00 0.00 30 1012.3
20190420223227 68 284 7.0 15.0 0.00 0.00 0.00 28 1012.3
20190420222719 68 289 8.0 15.0 0.00 0.00 0.00 27 1012.2
20190420222230 68 304 8.0 16.0 0.00 0.00 0.00 28 1012.2
20190420221721 68 305 7.0 15.0 0.00 0.00 0.00 30 1012.1
20190420221214 68 351 9.0 19.0 0.00 0.00 0.00 28 1012.1
20190420220725 68 264 12.0 17.0 0.00 0.00 0.00 27 1012.1
20190420220217 68 303 5.0 21.0 0.00 0.00 0.00 30 1012.0
20190420215728 68 313 8.0 21.0 0.00 0.00 0.00 28 1012.0
20190420215224 69 317 12.0 20.0 0.00 0.00 0.00 28 1012.1
20190420214715 68 283 5.0 21.0 0.00 0.00 0.00 29 1012.0
20190420214226 68 304 11.0 21.0 0.00 0.00 0.00 28 1012.0
20190420213717 68 284 12.0 20.0 0.00 0.00 0.00 27 1012.0
20190420213229 68 311 9.0 20.0 0.00 0.00 0.00 27 1012.0
20190420212720 68 291 10.0 18.0 0.00 0.00 0.00 26 1012.0
20190420212231 68 292 9.0 18.0 0.00 0.00 0.00 27 1011.9
20190420211724 68 343 8.0 18.0 0.00 0.00 0.00 26 1012.0
20190420211219 69 291 9.0 17.0 0.00 0.00 0.00 29 1012.0
20190420210730 68 282 6.0 20.0 0.00 0.00 0.00 28 1012.0
20190420210222 68 275 10.0 20.0 0.00 0.00 0.00 28 1012.1
20190420205732 68 311 12.0 17.0 0.00 0.00 0.00 28 1012.1
20190420205224 68 282 8.0 20.0 0.00 0.00 0.00 28 1012.1
20190420204715 68 292 11.0 24.0 0.00 0.00 0.00 26 1012.1
20190420204227 68 248 9.0 24.0 0.00 0.00 0.00 31 1011.9
20190420203718 68 291 5.0 18.0 0.00 0.00 0.00 28 1012.0
20190420203214 67 312 10.0 18.0 0.00 0.00 0.00 27 1012.0
20190420202725 68 254 7.0 22.0 0.00 0.00 0.00 28 1012.1
20190420202216 68 300 13.0 22.0 0.00 0.00 0.00 28 1012.1
20190420201728 67 293 6.0 23.0 0.00 0.00 0.00 31 1011.9
20190420201220 67 298 11.0 23.0 0.00 0.00 0.00 31 1012.1
20190420200731 67 333 9.0 21.0 0.00 0.00 0.00 28 1012.1
20190420200222 68 310 10.0 21.0 0.00 0.00 0.00 28 1012.1
20190420195714 68 303 8.0 17.0 0.00 0.00 0.00 28 1012.1
20190420195225 68 306 11.0 22.0 0.00 0.00 0.00 28 1012.2
20190420194721 67 288 9.0 22.0 0.00 0.00 0.00 29 1012.2
20190420194213 67 310 8.0 19.0 0.00 0.00 0.00 30 1012.0
20190420193725 67 306 9.0 18.0 0.00 0.00 0.00 29 1012.1
20190420193216 67 330 8.0 18.0 0.00 0.00 0.00 30 1012.1
20190420192727 67 270 9.0 17.0 0.00 0.00 0.00 30 1012.4
20190420192217 66 266 5.0 20.0 0.00 0.00 0.00 32 1012.1
20190420191729 66 317 12.0 25.0 0.00 0.00 0.00 27 1012.3
20190420191220 67 288 14.0 25.0 0.00 0.00 0.00 28 1012.3
20190420190717 67 296 9.0 20.0 0.00 0.00 0.00 30 1012.3
20190420190228 67 296 7.0 20.0 0.00 0.00 0.00 30 1012.3
20190420185719 66 313 8.0 18.0 0.00 0.00 0.00 30 1012.3
20190420185230 66 325 9.0 21.0 0.00 0.00 0.00 29 1012.3
20190420184721 65 295 11.0 26.0 0.00 0.00 0.00 29 1012.1
20190420184233 66 274 13.0 22.0 0.00 0.00 0.00 29 1012.3
20190420183724 66 279 9.0 20.0 0.00 0.00 0.00 30 1012.1
20190420183215 65 292 9.0 20.0 0.00 0.00 0.00 30 1012.2
20190420182731 65 251 4.0 19.0 0.00 0.00 0.00 33 1012.2
20190420182223 65 265 12.0 20.0 0.00 0.00 0.00 32 1012.3
20190420181715 64 275 11.0 24.0 0.00 0.00 0.00 29 1012.2
20190420181226 65 319 12.0 24.0 0.00 0.00 0.00 31 1012.3
20190420180718 65 215 7.0 20.0 0.00 0.00 0.00 32 1012.5
20190420180230 65 5 10.0 20.0 0.00 0.00 0.00 33 1012.4
20190420175721 64 249 7.0 21.0 0.00 0.00 0.00 32 1012.3
20190420175232 64 291 11.0 21.0 0.00 0.00 0.00 31 1012.5
20190420174728 64 277 8.0 24.0 0.00 0.00 0.00 34 1012.4
20190420174219 64 304 12.0 24.0 0.00 0.00 0.00 33 1012.5
20190420173730 64 286 8.0 16.0 0.00 0.00 0.00 34 1012.5
20190420173222 64 271 5.0 16.0 0.00 0.00 0.00 37 1012.4
20190420172733 63 342 7.0 16.0 0.00 0.00 0.00 34 1012.4
20190420172224 63 40 9.0 18.0 0.00 0.00 0.00 36 1012.5
20190420171715 63 298 11.0 18.0 0.00 0.00 0.00 36 1012.5
20190420171227 63 288 10.0 18.0 0.00 0.00 0.00 36 1012.5
20190420170722 63 243 7.0 18.0 0.00 0.00 0.00 36 1012.6
20190420170215 63 234 6.0 16.0 0.00 0.00 0.00 39 1012.7
20190420165726 62 284 10.0 22.0 0.00 0.00 0.00 37 1012.7
20190420165216 62 269 10.0 22.0 0.00 0.00 0.00 38 1012.8
20190420164728 62 315 12.0 19.0 0.00 0.00 0.00 37 1012.7
20190420164221 62 311 7.0 16.0 0.00 0.00 0.00 42 1012.8
20190420163731 62 292 9.0 16.0 0.00 0.00 0.00 39 1012.9
20190420163223 62 15 8.0 14.0 0.00 0.00 0.00 41 1012.7
20190420162718 62 309 6.0 15.0 0.00 0.00 0.00 42 1012.8
20190420162229 61 309 8.0 17.0 0.00 0.00 0.00 39 1012.9
20190420161721 61 297 8.0 17.0 0.00 0.00 0.00 44 1013.0
20190420161233 60 304 5.0 18.0 0.00 0.00 0.00 43 1012.9
20190420160723 60 324 10.0 25.0 0.00 0.00 0.00 41 1012.9
20190420160216 60 296 11.0 25.0 0.00 0.00 0.00 39 1013.0
20190420155720 60 298 9.0 17.0 0.00 0.00 0.00 42 1012.8
20190420155231 60 322 5.0 19.0 0.00 0.00 0.00 46 1012.9
20190420154723 60 307 7.0 19.0 0.00 0.00 0.00 44 1012.9
20190420154218 60 213 7.0 17.0 0.00 0.00 0.00 47 1013.0
20190420153711 59 278 7.0 19.0 0.00 0.00 0.00 46 1012.9
20190420153222 59 305 9.0 19.0 0.00 0.00 0.00 50 1012.9
20190420152713 59 307 8.0 20.0 0.00 0.00 0.00 51 1013.0
20190420152225 58 299 9.0 20.0 0.00 0.00 0.00 47 1012.9
20190420151718 58 350 11.0 18.0 0.00 0.00 0.00 50 1012.9
20190420151229 58 307 9.0 18.0 0.00 0.00 0.00 50 1012.8
20190420150720 58 290 8.0 16.0 0.00 0.00 0.00 53 1012.8
20190420150216 58 278 7.0 16.0 0.00 0.00 0.00 56 1012.8
20190420145727 58 355 9.0 16.0 0.00 0.00 0.00 57 1012.7
20190420145219 57 292 7.0 19.0 0.00 0.00 0.00 55 1012.7
20190420144710 57 320 9.0 19.0 0.00 0.00 0.00 56 1012.8
20190420144222 57 302 10.0 20.0 0.00 0.00 0.00 57 1012.7
20190420143713 57 238 6.0 16.0 0.00 0.00 0.00 60 1012.6
20190420143224 56 279 7.0 16.0 0.00 0.00 0.00 62 1012.6
20190420142717 56 290 10.0 16.0 0.00 0.00 0.00 63 1012.6
20190420142212 56 250 7.0 16.0 0.00 0.00 0.00 64 1012.6
20190420141724 56 180 7.0 13.0 0.00 0.00 0.00 64 1012.5
20190420141215 55 324 5.0 16.0 0.00 0.00 0.00 67 1012.5
20190420140726 55 257 9.0 16.0 0.00 0.00 0.00 67 1012.5
20190420140217 55 281 7.0 13.0 0.00 0.00 0.00 68 1012.4
20190420135728 54 321 5.0 13.0 0.00 0.00 0.00 68 1012.3
20190420135219 54 248 6.0 13.0 0.00 0.00 0.00 69 1012.2
20190420134711 54 317 4.0 16.0 0.00 0.00 0.00 72 1012.3
20190420134227 54 244 5.0 15.0 0.00 0.00 0.00 71 1012.3
20190420133719 54 263 8.0 15.0 0.00 0.00 0.00 72 1012.3
20190420133210 53 298 5.0 15.0 0.00 0.00 0.00 74 1012.2
20190420132721 53 301 8.0 15.0 0.00 0.00 0.00 74 1012.1
20190420132213 53 306 9.0 16.0 0.00 0.00 0.00 75 1012.1
20190420131722 52 309 6.0 16.0 0.00 0.00 0.00 76 1012.1
20190420131214 52 319 3.0 12.0 0.00 0.00 0.00 79 1012.1
20190420130726 52 284 4.0 14.0 0.00 0.00 0.00 79 1011.9
20190420130221 51 246 8.0 14.0 0.00 0.00 0.00 79 1011.8
20190420125712 51 302 4.0 13.0 0.00 0.00 0.00 81 1011.9
20190420125224 51 198 4.0 10.0 0.00 0.00 0.00 82 1011.9
20190420124712 50 278 4.0 11.0 0.00 0.00 0.00 83 1011.8
20190420124224 50 180 5.0 10.0 0.00 0.00 0.00 83 1011.8
20190420123715 50 215 5.0 12.0 0.00 0.00 0.00 84 1011.8
20190420123226 49 225 5.0 15.0 0.00 0.00 0.00 84 1011.7
20190420122719 49 265 5.0 14.0 0.00 0.00 0.00 85 1011.6
20190420122214 49 263 5.0 10.0 0.00 0.00 0.00 86 1011.6
20190420121726 48 274 3.0 10.0 0.00 0.00 0.00 87 1011.5
20190420121217 48 215 4.0 10.0 0.00 0.00 0.00 88 1011.5
20190420120728 48 236 4.0 10.0 0.00 0.00 0.00 88 1011.5
20190420120219 47 269 4.0 9.0 0.00 0.00 0.00 88 1011.3
20190420115712 47 215 3.0 8.0 0.00 0.00 0.00 89 1011.1
20190420115223 47 227 4.0 9.0 0.00 0.00 0.00 89 1011.1
20190420114714 47 231 4.0 11.0 0.00 0.00 0.00 88 1011.1
20190420114211 47 230 7.0 11.0 0.00 0.00 0.00 88 1011.0
20190420113722 47 212 5.0 10.0 0.00 0.00 0.00 89 1011.0
20190420113213 47 242 3.0 10.0 0.00 0.00 0.00 90 1010.9
20190420112725 47 218 6.0 8.0 0.00 0.00 0.00 90 1010.8
20190420112216 47 238 3.0 9.0 0.00 0.00 0.00 90 1010.7
20190420111727 47 215 4.0 9.0 0.00 0.00 0.00 90 1010.7
20190420111219 47 240 4.0 8.0 0.00 0.00 0.00 90 1010.6
20190420110711 47 210 5.0 9.0 0.00 0.00 0.00 90 1010.5
20190420110223 47 245 5.0 10.0 0.00 0.00 0.00 89 1010.4
20190420105719 47 195 4.0 9.0 0.00 0.00 0.00 88 1010.4
20190420105230 48 213 6.0 11.0 0.00 0.00 0.00 88 1010.3
20190420104721 48 213 6.0 11.0 0.00 0.00 0.00 88 1010.3
20190420104213 48 188 4.0 11.0 0.00 0.00 0.00 88 1010.3
20190420103725 48 202 5.0 14.0 0.00 0.00 0.00 88 1010.2
20190420103216 48 231 6.0 15.0 0.00 0.00 0.00 89 1010.2
20190420102727 48 260 4.0 10.0 0.00 0.00 0.00 89 1010.2
20190420102218 48 287 5.0 10.0 0.00 0.00 0.00 90 1010.1
20190420101714 48 209 5.0 9.0 0.00 0.00 0.00 90 1010.2
20190420101225 48 229 4.0 9.0 0.00 0.00 0.00 90 1010.2
20190420100717 48 241 5.0 9.0 0.00 0.00 0.00 90 1010.1
20190420100229 47 218 4.0 9.0 0.00 0.00 0.00 91 1010.1
20190420095720 47 194 4.0 9.0 0.00 0.00 0.00 91 1010.1
20190420095212 47 238 4.0 9.0 0.00 0.00 0.00 91 1010.1
20190420094724 47 252 4.0 9.0 0.00 0.00 0.00 91 1010.0
20190420094215 47 215 5.0 8.0 0.00 0.00 0.00 92 1009.8
20190420093710 47 270 5.0 8.0 0.00 0.00 0.00 91 1009.8
20190420093222 47 226 4.0 10.0 0.00 0.00 0.00 91 1009.8
20190420092713 47 239 4.0 10.0 0.00 0.00 0.00 91 1009.7
20190420092226 47 190 6.0 9.0 0.00 0.00 0.00 91 1009.7
20190420091717 47 196 5.0 9.0 0.00 0.00 0.00 91 1009.7
20190420091228 47 234 5.0 10.0 0.00 0.00 0.00 91 1009.7
20190420090720 47 218 4.0 10.0 0.00 0.00 0.00 91 1009.6
20190420090211 47 199 3.0 10.0 0.00 0.00 0.00 91 1009.5
20190420085727 47 225 3.0 9.0 0.00 0.00 0.00 91 1009.6
20190420085219 47 239 3.0 8.0 0.00 0.00 0.00 91 1009.7
20190420084710 46 213 3.0 8.0 0.00 0.00 0.00 91 1009.7
20190420084221 46 207 4.0 7.0 0.00 0.00 0.00 91 1009.7
20190420083712 46 234 4.0 6.0 0.00 0.00 0.00 91 1009.7
20190420083224 46 192 3.0 6.0 0.00 0.00 0.00 91 1009.7
20190420082715 46 193 3.0 6.0 0.00 0.00 0.00 91 1009.7
20190420082227 46 217 3.0 6.0 0.00 0.00 0.00 91 1009.7
20190420081722 46 211 3.0 5.0 0.00 0.00 0.00 91 1009.7
20190420081214 46 207 3.0 6.0 0.00 0.00 0.00 90 1009.7
20190420080726 46 215 2.0 6.0 0.00 0.00 0.00 90 1009.8
20190420080217 46 227 3.0 6.0 0.00 0.00 0.00 90 1009.8
20190420075728 46 228 3.0 6.0 0.00 0.00 0.00 90 1010.0
20190420075220 46 225 3.0 6.0 0.00 0.00 0.00 89 1010.0
20190420074712 47 225 2.0 5.0 0.00 0.00 0.00 89 1010.0
20190420074222 47 217 3.0 5.0 0.00 0.00 0.00 89 1009.9
20190420073717 47 206 4.0 6.0 0.00 0.00 0.00 88 1009.9
20190420073229 47 222 4.0 8.0 0.00 0.00 0.00 88 1010.0
20190420072720 47 217 4.0 8.0 0.00 0.00 0.00 88 1010.0
20190420072211 47 212 4.0 7.0 0.00 0.00 0.00 88 1010.1
20190420071723 47 247 3.0 7.0 0.00 0.00 0.00 87 1010.2
20190420071214 47 211 3.0 8.0 0.00 0.00 0.00 87 1010.2
20190420070726 47 212 2.0 8.0 0.00 0.00 0.00 86 1010.4
20190420070217 48 247 0.0 4.0 0.00 0.00 0.00 86 1010.4
20190420065713 48 247 1.0 4.0 0.00 0.00 0.00 85 1010.4
20190420065224 48 248 0.0 4.0 0.00 0.00 0.00 85 1010.3
20190420064715 48 263 1.0 8.0 0.00 0.00 0.00 84 1010.4
20190420064227 48 282 4.0 8.0 0.00 0.00 0.00 84 1010.3
20190420063718 48 291 2.0 7.0 0.00 0.00 0.00 84 1010.4
20190420063229 48 233 4.0 9.0 0.00 0.00 0.00 83 1010.5
20190420062719 48 296 3.0 9.0 0.00 0.00 0.00 83 1010.4
20190420062231 48 293 4.0 9.0 0.00 0.00 0.00 83 1010.4
20190420061719 48 288 5.0 9.0 0.00 0.00 0.00 83 1010.4
20190420061214 48 302 4.0 10.0 0.00 0.00 0.00 83 1010.4